Location: Newark
(27.9675°N, 86.8869°E)
Time: 05:14:08
(UTC+00:00)

Altair - Pass Details

Date: 26 October 2019
Orbit: 1502 x 1682 km, 47.2° (Epoch: 12 November)

Event Time Altitude Azimuth Distance (km) Brightness Sun altitude
Rises 06:03:54 0° 291° (WNW) 4,718 9.9 49.6°
Reaches altitude 10° 06:07:49 10° 304° (NW) 3,764 9.5 49.6°
Maximum altitude 06:15:12 24° 356° (N) 2,866 8.8 49.4°
Drops below altitude 10° 06:22:47 10° 46° (NE) 3,877 9.4 49.2°
Sets 06:26:55 0° 60° (ENE) 4,889 9.9 49.0°
